Current weather by "City, St" or "zip code"  
 

Current Conditions: Cherry Capital Airport, MI

Fair


56.0 F

Last Updated on May 21 2022, 3:53 am EDT
Humidity: 93%
Wind Speed: S 3.5 mph
Barometer 29.74 in
Dewpoint: 54.0 F
Visibility: 10.00 mi
Precip: --
Heat Index: NA
Wind Chill: NA
Current conditions at:

Cherry Capital Airport, MI (KTVC)

Lat: 44.73898 Lon: 85.56788

Local Radar Image active severe weather and emergency alerts image image weather storm and storm spotter reports image weather observation monitoring service image
Local
Radar
Active
Alerts
Storm Reports Obs
Monitoring

Sign-up For Email & Text Message Weather Alert Notification Services



Advertise Here

Observation History for Cherry Capital Airport, MI


Time Wind
(mph)
Vis
(mi)
Weather Precip (in) Temperature (F) Relative
Humidity
Wind
Chill
(F)
Heat
Index
(F)
Pressure
Air Dwpt altimeter
(in)
sea level
(mb)
Rmks
3:53 am EDT S 3.5 10.00 Fair -- 56.0 54.0 93% NA NA 29.74 1006.8
2:53 am EDT SW 3.5 10.00 A Few Clouds -- 58.0 55.0 90% NA NA 29.71 1006.0
1:53 am EDT S 5.8 10.00 Partly Cloudy -- 59.0 55.9 90% 58 NA 29.70 1005.5
12:53 am EDT N 0.0 10.00 Partly Cloudy -- 59.0 57.0 93% NA NA 29.68 1004.6
11:53 pm EDT SW 4.6 10.00 Mostly Cloudy -- 60.0 57.9 93% 60 NA 29.66 1004.3
10:53 pm EDT N 0.0 10.00 Overcast -- 60.0 57.9 93% NA NA 29.64 1003.6
9:53 pm EDT S 3.5 10.00 Overcast Trace 60.0 57.9 93% NA NA 29.61 1002.8
8:53 pm EDT SW 3.5 5.00 Thunderstorm Light Rain Fog/Mist 00.02 61.0 57.9 90% NA NA 29.60 1002.2
7:53 pm EDT W 9.2 10.00 Overcast 00.03 61.0 57.0 87% 60 NA 29.56 1000.8
5:53 pm EDT W 9.2 10.00 Light Rain Trace 64.0 59.0 84% NA NA 29.49 998.3
4:53 pm EDT W 10.4 10.00 Overcast 00.01 65.0 61.0 87% NA NA 29.44 996.7
3:53 pm EDT W 16.1 G 24.2 3.00 Light Rain Fog/Mist 00.03 72.0 69.1 91% NA NA 29.38 994.8
2:53 pm EDT S 15.0 G 27.6 10.00 Thunderstorm Light Rain 00.01 76.0 68.0 77% NA NA 29.31 992.3
11:53 am EDT SW 18.4 G 29.9 10.00 Overcast -- 81.0 64.0 57% NA 83 29.34 993.4
10:53 am EDT S 16.1 G 27.6 10.00 Mostly Cloudy -- 81.0 63.0 54% NA 82 29.34 993.3
9:53 am EDT N 9.2 10.00 A Few Clouds -- 63.0 53.1 70% 62 NA 29.33 993.2
8:53 am EDT S 4.6 10.00 Mostly Cloudy -- 72.0 62.1 71% NA NA 29.37 994.5
7:53 am EDT SW 9.2 G 20.7 10.00 Mostly Cloudy -- 70.0 61.0 73% NA NA 29.37 994.5
5:53 am EDT S 16.1 G 31.1 10.00 Fair -- 71.0 60.1 68% NA NA 29.29 991.4
4:53 am EDT S 16.1 G 33.4 10.00 Fair 00.02 70.0 60.1 71% NA NA 29.29 991.5
3:53 am EDT S 4.6 8.00 Partly Cloudy 00.02 59.0 57.0 93% 59 NA 29.40 995.5

Regional Weather Observation


Bellaire, Antrim County Airport, MI (KACB)

Fog
53.0 F

Charlevoix, Charlevoix Municipal Airport, MI (KCVX)

Fair
54.0 F

Frankfort, Frankfort Dow Memorial Field Airport, MI (KFKS)

Fair
49.0 F

Wexford County Airport, MI (KCAD)

Overcast
55.0 F

Beaver Island, Beaver Island Airport, MI (KSJX)

Mostly Cloudy
51.0 F

Manistee County - Blacker Airport, MI (KMBL)

Fog
50.0 F

Advertise Here


Advertise Here